Back to catalog

THORAD DELTA 1 DEB

AliveSSO
NORAD 8165·DEBRIS·🇺🇸 United States

Launched Nov 15, 1974 from Vandenberg Space Force Base

Loading…

Next Passes (next 24 hours)

TLE

FreshSource: Space-Track

Epoch: Sep 14, 2026, 07:38 UTC

1 08165U 74089AF  26257.31866802 -.00000024  00000-0  13301-3 0  9992
2 08165 101.7165 199.6680 0018152  69.4695  85.2086 12.50214944363900

Track THORAD DELTA 1 DEB in real time with AllMySat

Download on the App Store